RH
60 61 67 77 84 99 94 80 80 80 74 64 62 59 54 53 48 44 44 48 48 46 47 43 38 38 38 47 55 54 54 56 52 57 62 57 54 52 51 53 55 65 69
58 61 66 69 75 84 100 81 77 77 73 65 61 60 56 52 47 44 45 47 48 47 46 43 38 36 38 39 55 56 61 60 55 64 65 77 72 60 52 53 53 57 72
40 48 66 72 68 87 90 99 77 74 73 67 63 58 56 55 51 47 46 50 49 49 47 46 40 37 39 39 51 56 58 70 62 58 61 86 80 74 56 53 51 53 69
33 34 54 81 82 74 65 73 92 76 70 67 65 58 57 58 56 50 48 50 52 50 50 47 43 38 40 41 43 54 57 60 66 62 60 56 62 83 80 55 55 55 65
39 34 34 84 86 86 91 98 97 84 78 69 68 63 64 57 52 50 49 48 52 53 51 50 47 41 40 39 41 53 59 57 63 68 65 54 61 58 69 76 61 59 76
40 36 30 57 96 97 99 100 100 91 83 82 76 71 70 64 58 57 55 52 53 53 53 51 49 43 39 38 39 43 55 59 59 60 58 48 53 56 60 72 65 62 74
58 49 35 38 83 98 99 99 100 100 86 80 78 75 71 70 63 58 56 58 58 57 54 54 52 48 42 38 39 42 47 52 59 60 56 54 44 43 48 51 65 71 77
55 58 66 68 63 96 92 94 97 98 97 86 82 80 77 75 71 68 61 56 54 55 54 53 53 51 46 44 42 43 44 45 48 54 55 46 44 39 42 49 56 80 77
55 59 63 62 90 90 88 87 92 96 100 97 93 89 84 81 76 73 69 63 59 56 56 53 55 53 50 46 45 44 45 44 44 39 48 42 42 40 44 43 50 59 87
54 58 63 61 56 61 73 78 81 88 100 98 93 90 88 87 85 80 75 71 66 63 60 56 55 56 54 50 46 47 48 48 48 45 46 47 47 49 48 48 51 51 59
56 62 66 62 59 55 52 54 66 93 95 100 98 96 94 93 92 89 86 80 73 68 66 63 58 61 60 58 56 54 54 55 55 56 52 51 50 50 52 52 52 52 56
64 60 61 63 67 66 62 58 54 61 81 100 99 98 98 98 97 95 92 88 81 76 75 74 75 78 77 72 70 68 64 60 61 61 58 56 56 54 55 54 50 44 43
67 67 65 66 66 72 71 72 68 58 57 75 98 97 99 99 97 95 92 93 88 86 84 85 83 88 88 89 85 78 66 66 63 62 62 62 57 50 37 26 24 24 24
67 69 71 69 71 72 70 66 61 70 68 72 93 100 100 99 100 100 100 97 95 92 92 96 98 97 96 94 90 86 78 72 66 62 60 53 41 30 30 27 27 31 31
65 66 73 72 73 75 77 76 68 63 74 82 94 86 97 100 100 100 100 100 100 98 99 100 100 94 93 94 86 83 87 75 71 60 54 38 26 25 30 34 36 37 38
68 66 67 71 73 76 78 80 81 76 79 84 99 96 100 100 100 100 100 100 100 100 99 100 100 100 99 91 81 85 86 90 82 77 55 44 46 56 45 37 38 39 39
70 71 68 70 71 75 79 87 90 86 87 88 96 98 100 100 94 96 100 100 100 100 100 100 100 100 99 97 91 91 85 84 75 63 58 70 68 65 52 35 30 43 62
73 71 72 72 75 80 85 100 91 95 94 96 99 99 98 99 100 100 100 100 100 99 99 100 100 100 100 98 97 92 82 84 74 71 77 79 70 48 37 47 80 84 76
68 72 75 77 74 76 89 100 98 92 85 85 94 100 100 100 100 100 100 100 100 100 100 100 100 100 100 100 94 93 88 80 92 91 91 72 54 51 54 69 72 74 87
74 74 80 76 67 68 87 100 97 93 91 89 91 99 100 100 100 100 100 100 100 100 100 100 100 100 100 100 94 90 95 98 95 97 87 58 54 85 54 58 66 73 76
70 76 85 80 66 66 78 98 99 97 94 91 92 97 100 100 100 100 100 100 100 100 100 100 100 100 100 100 100 99 96 94 98 94 85 87 92 94 68 58 62 65 72
81 83 90 89 73 60 68 83 91 94 94 93 95 97 100 100 100 100 100 100 100 100 100 100 100 100 100 99 99 95 91 93 65 74 81 89 88 88 93 77 77 93 86
81 87 91 96 82 79 84 79 79 91 97 99 100 100 100 100 100 100 100 100 100 100 100 100 100 100 100 99 99 99 98 79 55 59 79 89 87 85 90 86 95 88 78
86 92 92 93 98 95 100 91 84 87 95 99 100 100 100 100 100 100 100 100 100 100 100 100 100 100 100 99 99 92 96 71 60 85 88 87 85 83 90 90 72 69 74
90 96 97 97 98 99 100 100 100 95 95 99 100 100 100 100 100 100 99 100 100 100 100 100 99 99 100 99 97 92 90 79 83 85 87 90 86 93 80 73 72 74 81
97 97 96 100 100 98 100 100 99 100 99 98 99 100 100 100 99 98 99 99 98 99 98 99 97 99 97 99 99 93 84 86 88 81 88 88 82 78 76 76 79 86 84
Wind_Speed
11 20 25 24 20 19 30 34 32 35 38 38 35 33 35 33 32 32 30 29 28 28 25 25 25 27 28 29 29 29 28 27 27 24 18 14 11 10 10 10 10 11 12
6 7 18 23 27 28 25 29 32 35 37 35 35 27 32 33 33 31 31 29 30 29 28 29 30 30 30 31 32 33 30 30 30 17 13 3 3 7 9 10 10 11 11
9 8 7 19 27 26 29 27 33 36 33 30 32 22 27 23 30 32 31 32 31 30 31 30 30 31 33 35 35 37 35 30 27 31 7 3 3 7 7 11 10 12 13
6 7 6 13 22 28 29 26 32 35 38 37 33 32 29 21 27 31 33 33 31 30 31 30 30 31 32 34 36 37 37 37 31 32 11 6 11 3 2 8 11 11 12
9 10 9 16 27 27 29 30 33 33 36 42 41 36 26 31 32 33 32 32 32 32 31 30 30 31 32 32 34 37 37 37 36 28 16 10 11 9 5 3 7 12 13
8 6 11 12 13 18 23 26 30 33 37 39 40 38 34 30 30 32 33 35 34 33 32 32 32 32 33 33 34 35 37 36 34 31 26 15 9 9 6 4 6 12 9
7 4 5 6 13 15 16 20 26 29 37 39 39 41 41 39 35 35 36 34 35 36 36 34 34 34 34 33 33 35 35 34 33 32 26 26 19 16 11 14 8 5 6
7 7 7 3 8 16 22 22 24 26 32 38 40 41 38 36 37 36 35 36 38 38 36 36 35 35 34 33 33 32 32 31 31 30 29 23 22 15 19 18 22 4 2
8 8 7 13 10 7 11 13 16 20 26 32 35 36 38 37 39 39 37 36 35 36 35 35 36 35 35 33 33 33 33 30 27 24 25 22 20 17 18 21 31 18 4
8 8 7 12 14 12 4 7 11 16 22 31 34 37 39 38 36 36 37 38 36 35 35 34 35 35 34 34 32 32 30 28 26 24 22 20 18 15 15 20 24 16 9
7 7 7 13 13 13 13 8 5 7 13 21 26 27 31 33 32 33 32 35 38 38 37 36 36 36 32 30 28 26 25 24 22 21 21 19 17 16 15 18 19 13 8
10 10 10 14 16 14 14 14 12 7 2 6 19 21 22 25 27 31 34 34 37 38 37 35 29 23 23 19 17 18 20 22 22 20 19 18 17 16 14 13 12 11 9
13 11 12 13 18 19 20 15 13 13 10 7 11 17 23 26 29 32 33 34 34 34 31 31 32 28 27 24 20 19 20 19 21 19 18 16 15 16 15 14 13 11 11
14 13 12 11 18 20 21 24 20 15 13 10 10 15 21 26 28 30 29 32 33 32 32 32 32 33 32 31 28 22 17 20 19 16 16 17 14 15 14 12 10 8 9
16 16 15 14 20 21 23 26 28 24 15 10 10 14 17 19 23 24 27 28 29 30 31 33 36 38 41 44 40 37 34 26 21 19 16 15 16 13 11 9 9 8 8
17 15 16 18 22 25 26 25 26 27 18 14 10 12 15 16 18 21 23 24 26 29 32 36 38 38 41 43 41 42 42 33 26 26 26 24 17 13 11 9 8 6 7
15 15 15 16 20 22 24 27 27 22 15 14 11 10 12 14 16 20 23 24 28 31 35 38 40 39 39 45 43 37 38 38 35 33 27 22 18 15 13 11 9 8 7
13 13 18 23 26 26 25 24 15 11 11 12 11 10 12 15 18 21 24 26 30 33 35 35 36 38 39 41 41 45 40 37 33 29 25 22 17 15 15 13 15 13 9
15 16 21 23 26 27 28 18 9 7 9 11 13 14 13 16 18 21 24 26 27 26 27 31 35 36 37 43 43 41 36 34 30 25 19 16 19 15 13 16 16 14 12
21 23 26 23 23 28 24 17 13 12 14 14 13 12 13 16 18 20 23 24 24 25 28 28 31 36 37 39 37 36 36 32 28 22 22 20 17 16 14 14 15 13 10
22 23 24 21 21 26 21 14 15 13 13 13 12 9 9 12 16 19 21 24 25 25 25 28 28 33 39 32 33 36 34 33 29 26 24 20 17 16 13 12 12 11 10
23 21 20 22 24 22 19 12 10 12 11 10 7 6 8 11 15 20 22 25 28 29 28 31 28 30 31 29 26 29 29 30 35 30 26 22 17 16 13 11 10 10 10
23 24 20 20 20 21 18 13 10 8 7 6 5 6 8 10 14 20 24 25 25 26 25 26 28 29 29 25 24 22 25 26 29 27 26 22 18 14 13 11 12 10 8
21 22 19 18 19 23 18 11 10 7 5 4 5 7 10 11 14 17 20 22 22 22 23 25 26 28 29 28 26 26 23 23 24 25 23 21 17 14 15 14 11 9 7
21 22 19 17 19 22 16 14 11 9 4 3 5 8 11 14 16 16 16 18 19 25 28 27 31 32 27 26 28 30 29 30 32 31 25 22 20 18 16 14 11 9 7
22 21 21 20 20 19 15 15 13 7 6 5 7 10 13 16 18 18 17 14 18 18 23 31 34 25 28 27 26 25 27 27 27 27 25 22 20 19 16 13 11 9 5
Wind_Direction
223 219 193 190 192 208 178 184 186 189 183 184 187 192 198 203 203 202 201 201 199 195 191 187 184 183 180 174 172 164 160 154 153 135 124 124 131 130 133 137 139 135 127
248 214 203 178 192 199 188 181 186 193 191 188 189 190 198 203 207 205 205 206 203 198 196 194 189 187 181 179 176 173 161 160 157 152 126 118 107 148 148 152 151 151 149
220 239 204 191 191 191 192 189 189 195 193 191 190 187 196 204 207 208 205 207 206 204 203 201 196 192 189 183 184 182 174 167 173 165 150 133 185 145 171 168 162 162 162
208 223 206 194 188 205 217 209 205 198 195 196 194 194 189 193 207 210 209 208 210 211 212 207 205 199 197 195 189 192 187 178 178 181 196 173 144 155 155 183 169 165 170
207 212 216 195 198 199 199 197 196 198 193 199 202 201 199 203 209 211 214 212 213 214 215 213 211 208 205 203 197 195 195 194 189 187 185 173 162 156 139 157 172 162 164
215 221 219 212 212 207 193 192 187 194 198 200 199 204 202 205 204 208 211 213 214 215 216 216 216 214 211 207 205 204 204 204 205 201 202 186 168 180 148 108 153 153 152
87 105 217 218 199 193 204 203 197 191 195 202 202 209 211 211 212 210 212 214 215 215 216 216 216 217 216 211 209 207 208 209 211 210 213 218 208 200 176 143 144 133 140
67 64 49 19 204 197 190 200 203 200 198 202 207 213 212 212 215 215 215 220 220 220 220 218 220 221 221 217 212 211 212 213 214 217 220 221 218 215 197 168 158 98 112
61 67 44 48 61 167 190 210 208 208 202 202 205 208 214 215 217 223 224 225 225 224 223 222 222 223 224 220 219 217 212 212 213 213 215 214 210 210 207 196 174 155 146
50 49 52 47 53 69 98 218 226 224 221 214 213 214 219 220 220 221 222 226 228 227 226 224 224 224 223 221 217 217 216 211 205 197 197 189 185 184 181 182 177 174 141
45 39 29 33 46 50 46 42 30 244 241 226 221 216 221 224 222 224 224 227 230 227 225 226 223 221 219 219 213 211 209 203 193 185 184 177 171 167 165 168 183 172 149
34 29 31 31 33 33 31 26 21 8 286 248 237 233 230 228 227 228 232 231 230 230 226 219 212 197 193 202 208 209 205 196 184 179 177 167 164 153 148 146 135 129 126
26 20 19 12 5 13 20 16 11 2 333 290 242 234 225 229 232 235 235 231 226 224 210 201 196 194 194 195 188 204 192 194 184 175 172 159 155 139 137 134 127 122 113
15 9 12 8 357 357 359 359 357 347 340 309 261 244 233 228 225 229 225 226 221 211 204 199 195 190 188 187 185 186 196 196 182 173 170 156 149 145 135 125 127 138 139
9 1 356 353 350 352 349 345 343 344 334 317 270 255 251 239 232 231 229 226 215 209 203 187 185 191 193 189 184 181 185 175 169 161 157 150 153 150 146 161 157 160 151
357 350 345 348 347 342 336 331 329 333 330 322 304 269 249 242 230 230 230 220 205 193 187 182 185 180 181 188 185 181 176 176 184 171 169 161 160 172 174 163 164 174 185
351 344 329 334 332 329 323 318 318 325 322 319 315 282 252 233 239 236 224 205 194 190 183 181 181 178 182 183 177 182 183 179 174 174 170 172 178 177 175 176 162 145 138
338 333 332 330 326 325 328 335 343 340 333 325 308 279 257 241 226 216 208 200 195 190 184 180 179 180 180 184 181 181 174 172 171 176 179 185 171 177 176 157 144 149 147
324 327 318 322 324 329 338 339 359 8 345 331 311 285 253 233 219 209 201 198 188 180 178 176 175 170 160 170 173 172 167 165 171 173 174 181 171 162 161 154 150 141 134
333 329 332 326 331 331 341 335 337 337 339 334 314 291 260 231 211 202 192 186 182 174 174 168 167 163 152 161 174 170 168 165 164 166 172 177 159 156 162 164 159 157 159
329 330 328 326 324 327 337 338 336 338 332 330 319 295 257 223 204 189 185 179 169 159 154 150 151 151 157 156 167 175 172 166 159 161 164 154 153 149 157 164 163 164 164
329 333 330 324 326 334 335 335 334 329 327 319 304 277 237 215 195 186 172 167 158 146 139 135 130 136 142 148 152 166 171 168 167 164 161 153 155 149 150 154 150 155 161
329 331 330 325 333 344 349 336 336 339 328 303 263 230 223 209 195 183 166 154 152 147 142 137 132 131 140 142 148 155 159 164 169 164 155 152 151 149 149 146 150 155 173
329 331 332 334 336 349 349 355 339 340 325 278 239 209 201 190 182 175 165 159 158 154 148 143 136 136 139 144 147 151 152 159 155 148 152 154 156 153 143 144 151 150 157
337 334 335 339 338 343 340 337 335 324 305 251 222 191 174 170 167 166 169 167 168 165 155 150 146 145 144 150 151 155 151 154 154 153 151 152 151 151 153 147 144 146 152
339 339 337 341 344 342 333 335 331 310 263 188 179 174 167 159 150 137 116 151 153 151 150 147 146 140 144 147 150 152 152 151 153 154 153 157 167 166 163 155 149 147 136